STARLINK-5727, 55587

Orbit data source: Space-Track

STARLINK-5727, 55587 is a payload satellite owned by SpaceX/Seattle (US) in LEO that was launched on Sun, 12 Feb 2023 UTC via an FALCON 9 launch vehicle from the Air Force Eastern Test Range (AFETR). Payload-class satellites include a variety of spacecraft equipped with specific instruments for various scientific and technological missions. These include communications satellites like Starlink; space stations such as the ISS; scientific satellites like the Hubble; Earth observation satellites from companies like Planet Labs, Umbra, and HawkEye 360; GPS; miniature CubeSats for education and research; and military/defense satellites.

Loading next visibility...
Identifier
55587, 2023-020U
Orbit
LEO
Country
Flag of USUS
Related business
Manufacturer
SpaceX/Seattle
Mission
Operational Commercial Communications
Bus & Motor
STARLINK, Unknown motor
Mass
305 kg wet, ~290 kg dry
Launch date (UTC)
2023-02-12 (4 years ago)
Launch vehicle
FALCON 9
Launch site
Air Force Eastern Test Range (AFETR)
Object type
Payload
Rocket body
Debris
Shape & HBR
Box + 1 Pan, 10.1 m
Radar Cross Section
13.562 m², Large (>1 m²)

Expand to show TLE details & history
Last TLE update: 6 hours ago

TLE from 6 hours ago
0 STARLINK-5727
1 55587U 23020U   26264.27593720  .00000378  00000-0  23264-4 0  9991
2 55587  43.0050 340.6924 0001829 280.9038  79.1607 15.27575975198823
Epoch: 2026-09-21T06:37Z
TLE epoch observation values (Epoch: 2026-09-21T06:37:20.974Z)
Latitude
-0.00006°
Longitude
-118.80315°
Altitude
482.601 km
Speed
7.626 km/s
True Right ascension
22h 42m 46s
True Declination
0° 00' 00"
Sunlit
Object was in full shadow at epoch
Visualization orbit readout
Latitude
Unknown
Longitude
Unknown
Altitude
Unknown
Speed
Unknown
Apparent Right ascension
Unknown
Apparent Declination
Unknown
Sunlit
N/A
Visualization observer readout
Local Sidereal Time
06:00:04
Azimuth
Unknown
Elevation
Unknown
Doppler factor
Unknown
Orbital elements
Apogee altitude
486.261 km
Perigee altitude
483.75 km
Semi-major axis
6,863.142 km
Eccentricity
0.00018
Inclination
43.005°
RAAN
340.6924°
Arg. of periapsis
280.9038°
True anomaly
79.18129°
Mean anomaly
79.1607°
Eccentric anomaly
79.17099°
Mean motion
3.81732 °/min
Orbital period
94.31 mins
BSTAR
0.000023264
Loading maneuver chart data...
Computing Atmospheric mass density...
Loading historical data...
Loading historical data...
Loading historical data...
Loading historical data...
Loading historical data...
Loading historical data...
Loading historical data...

Documentation

Showing up to 5 results
|